Year,Month,Day,Hour,Minute,Value (Times are PST for temperature in C)
2008,08,16,00,00,22.00
2008,08,16,00,01,22.00
2008,08,16,00,02,22.00
2008,08,16,00,03,22.00
2008,08,16,00,04,21.90
2008,08,16,00,05,21.90
2008,08,16,00,06,21.90
2008,08,16,00,07,21.90
2008,08,16,00,08,21.80
2008,08,16,00,09,21.80
2008,08,16,00,10,21.80
2008,08,16,00,11,21.80
2008,08,16,00,12,21.80
2008,08,16,00,13,21.80
2008,08,16,00,14,21.80
2008,08,16,00,15,21.80
2008,08,16,00,16,21.80
2008,08,16,00,17,21.90
2008,08,16,00,18,21.90
2008,08,16,00,19,21.90
2008,08,16,00,20,21.90
2008,08,16,00,21,21.80
2008,08,16,00,22,21.80
2008,08,16,00,23,21.80
2008,08,16,00,24,21.80
2008,08,16,00,25,21.70
2008,08,16,00,26,21.70
2008,08,16,00,27,21.60
2008,08,16,00,28,21.60
2008,08,16,00,29,21.50
2008,08,16,00,30,21.40
2008,08,16,00,31,21.40
2008,08,16,00,32,21.30
2008,08,16,00,33,21.30
2008,08,16,00,34,21.30
2008,08,16,00,35,21.30
2008,08,16,00,36,21.30
2008,08,16,00,37,21.20
2008,08,16,00,38,21.20
2008,08,16,00,39,21.20
2008,08,16,00,40,21.20
2008,08,16,00,41,21.20
2008,08,16,00,42,21.20
2008,08,16,00,43,21.10
2008,08,16,00,44,21.10
2008,08,16,00,45,21.10
2008,08,16,00,46,21.10
2008,08,16,00,47,21.20
2008,08,16,00,48,21.20
2008,08,16,00,49,21.10
2008,08,16,00,50,21.10
2008,08,16,00,51,21.10
2008,08,16,00,52,21.10
2008,08,16,00,53,21.00
2008,08,16,00,54,21.00
2008,08,16,00,55,21.00
2008,08,16,00,56,21.00
2008,08,16,00,57,21.00
2008,08,16,00,58,20.90
2008,08,16,00,59,20.90
2008,08,16,01,00,20.80
2008,08,16,01,01,20.80
2008,08,16,01,02,20.70
2008,08,16,01,03,20.70
2008,08,16,01,04,20.70
2008,08,16,01,05,20.60
2008,08,16,01,06,20.60
2008,08,16,01,07,20.60
2008,08,16,01,08,20.60
2008,08,16,01,09,20.50
2008,08,16,01,10,20.50
2008,08,16,01,11,20.50
2008,08,16,01,12,20.50
2008,08,16,01,13,20.50
2008,08,16,01,14,20.60
2008,08,16,01,15,20.60
2008,08,16,01,16,20.60
2008,08,16,01,17,20.60
2008,08,16,01,18,20.70
2008,08,16,01,19,20.70
2008,08,16,01,20,20.80
2008,08,16,01,21,20.90
2008,08,16,01,22,20.90
2008,08,16,01,23,20.90
2008,08,16,01,24,20.90
2008,08,16,01,25,20.90
2008,08,16,01,26,21.00
2008,08,16,01,27,21.00
2008,08,16,01,28,21.00
2008,08,16,01,29,21.00
2008,08,16,01,30,21.10
2008,08,16,01,31,21.10
2008,08,16,01,32,21.10
2008,08,16,01,33,21.10
2008,08,16,01,34,21.10
2008,08,16,01,35,21.10
2008,08,16,01,36,21.00
2008,08,16,01,37,21.00
2008,08,16,01,38,21.00
2008,08,16,01,39,21.00
2008,08,16,01,40,21.00
2008,08,16,01,41,21.00
2008,08,16,01,42,21.00
2008,08,16,01,43,21.00
2008,08,16,01,44,20.90
2008,08,16,01,45,20.80
2008,08,16,01,46,20.60
2008,08,16,01,47,20.40
2008,08,16,01,48,20.30
2008,08,16,01,49,20.20
2008,08,16,01,50,20.20
2008,08,16,01,51,20.20
2008,08,16,01,52,20.20
2008,08,16,01,53,20.20
2008,08,16,01,54,20.20
2008,08,16,01,55,20.30
2008,08,16,01,56,20.30
2008,08,16,01,57,20.40
2008,08,16,01,58,20.40
2008,08,16,01,59,20.40
2008,08,16,02,00,20.40
2008,08,16,02,01,20.40
2008,08,16,02,02,20.40
2008,08,16,02,03,20.30
2008,08,16,02,04,20.20
2008,08,16,02,05,20.10
2008,08,16,02,06,20.10
2008,08,16,02,07,20.00
2008,08,16,02,08,19.90
2008,08,16,02,09,19.90
2008,08,16,02,10,19.90
2008,08,16,02,11,20.10
2008,08,16,02,12,20.10
2008,08,16,02,13,19.90
2008,08,16,02,14,19.90
2008,08,16,02,15,19.90
2008,08,16,02,16,19.90
2008,08,16,02,17,19.90
2008,08,16,02,18,19.80
2008,08,16,02,19,19.80
2008,08,16,02,20,19.80
2008,08,16,02,21,19.80
2008,08,16,02,22,19.80
2008,08,16,02,23,19.80
2008,08,16,02,24,19.80
2008,08,16,02,25,19.70
2008,08,16,02,26,19.70
2008,08,16,02,27,19.70
2008,08,16,02,28,19.70
2008,08,16,02,29,19.70
2008,08,16,02,30,19.80
2008,08,16,02,31,19.80
2008,08,16,02,32,19.80
2008,08,16,02,33,19.90
2008,08,16,02,34,19.90
2008,08,16,02,35,19.80
2008,08,16,02,36,19.70
2008,08,16,02,37,19.70
2008,08,16,02,38,19.60
2008,08,16,02,39,19.60
2008,08,16,02,40,19.70
2008,08,16,02,41,19.70
2008,08,16,02,42,19.80
2008,08,16,02,43,19.80
2008,08,16,02,44,19.80
2008,08,16,02,45,19.80
2008,08,16,02,46,19.70
2008,08,16,02,47,19.70
2008,08,16,02,48,19.60
2008,08,16,02,49,19.60
2008,08,16,02,50,19.60
2008,08,16,02,51,19.60
2008,08,16,02,52,19.60
2008,08,16,02,53,19.50
2008,08,16,02,54,19.50
2008,08,16,02,55,19.40
2008,08,16,02,56,19.40
2008,08,16,02,57,19.40
2008,08,16,02,58,19.40
2008,08,16,02,59,19.40
2008,08,16,03,00,19.40
2008,08,16,03,01,19.50
2008,08,16,03,02,19.50
2008,08,16,03,03,19.50
2008,08,16,03,04,19.60
2008,08,16,03,05,19.60
2008,08,16,03,06,19.60
2008,08,16,03,07,19.70
2008,08,16,03,08,19.70
2008,08,16,03,09,19.70
2008,08,16,03,10,19.70
2008,08,16,03,11,19.70
2008,08,16,03,12,19.60
2008,08,16,03,13,19.60
2008,08,16,03,14,19.60
2008,08,16,03,15,19.60
2008,08,16,03,16,19.50
2008,08,16,03,17,19.50
2008,08,16,03,18,19.40
2008,08,16,03,19,19.40
2008,08,16,03,20,19.30
2008,08,16,03,21,19.30
2008,08,16,03,22,19.40
2008,08,16,03,23,19.40
2008,08,16,03,24,19.40
2008,08,16,03,25,19.30
2008,08,16,03,26,19.20
2008,08,16,03,27,19.30
2008,08,16,03,28,19.30
2008,08,16,03,29,19.30
2008,08,16,03,30,19.30
2008,08,16,03,31,19.20
2008,08,16,03,32,19.10
2008,08,16,03,33,19.20
2008,08,16,03,34,19.20
2008,08,16,03,35,19.10
2008,08,16,03,36,19.00
2008,08,16,03,37,18.90
2008,08,16,03,38,18.90
2008,08,16,03,39,18.90
2008,08,16,03,40,18.90
2008,08,16,03,41,18.90
2008,08,16,03,42,19.00
2008,08,16,03,43,19.00
2008,08,16,03,44,18.90
2008,08,16,03,45,18.90
2008,08,16,03,46,18.90
2008,08,16,03,47,18.90
2008,08,16,03,48,18.90
2008,08,16,03,49,18.90
2008,08,16,03,50,18.80
2008,08,16,03,51,18.70
2008,08,16,03,52,18.60
2008,08,16,03,53,18.50
2008,08,16,03,54,18.40
2008,08,16,03,55,18.30
2008,08,16,03,56,18.20
2008,08,16,03,57,18.20
2008,08,16,03,58,18.10
2008,08,16,03,59,18.00
2008,08,16,04,00,17.90
2008,08,16,04,01,17.90
2008,08,16,04,02,17.90
2008,08,16,04,03,17.90
2008,08,16,04,04,17.80
2008,08,16,04,05,17.80
2008,08,16,04,06,17.70
2008,08,16,04,07,17.70
2008,08,16,04,08,17.60
2008,08,16,04,09,17.60
2008,08,16,04,10,17.50
2008,08,16,04,11,17.50
2008,08,16,04,12,17.60
2008,08,16,04,13,17.60
2008,08,16,04,14,17.70
2008,08,16,04,15,17.70
2008,08,16,04,16,17.80
2008,08,16,04,17,17.70
2008,08,16,04,18,17.70
2008,08,16,04,19,17.70
2008,08,16,04,20,17.70
2008,08,16,04,21,17.70
2008,08,16,04,22,17.70
2008,08,16,04,23,17.70
2008,08,16,04,24,17.60
2008,08,16,04,25,17.60
2008,08,16,04,26,17.60
2008,08,16,04,27,17.50
2008,08,16,04,28,17.50
2008,08,16,04,29,17.50
2008,08,16,04,30,17.50
2008,08,16,04,31,17.50
2008,08,16,04,32,17.40
2008,08,16,04,33,17.40
2008,08,16,04,34,17.40
2008,08,16,04,35,17.30
2008,08,16,04,36,17.30
2008,08,16,04,37,17.30
2008,08,16,04,38,17.30
2008,08,16,04,39,17.30
2008,08,16,04,40,17.30
2008,08,16,04,41,17.20
2008,08,16,04,42,17.20
2008,08,16,04,43,17.20
2008,08,16,04,44,17.20
2008,08,16,04,45,17.20
2008,08,16,04,46,17.20
2008,08,16,04,47,17.20
2008,08,16,04,48,17.20
2008,08,16,04,49,17.30
2008,08,16,04,50,17.30
2008,08,16,04,51,17.40
2008,08,16,04,52,17.50
2008,08,16,04,53,17.50
2008,08,16,04,54,17.60
2008,08,16,04,55,17.70
2008,08,16,04,56,17.80
2008,08,16,04,57,17.90
2008,08,16,04,58,17.90
2008,08,16,04,59,18.00
2008,08,16,05,00,18.10
2008,08,16,05,01,18.20
2008,08,16,05,02,18.20
2008,08,16,05,03,18.40
2008,08,16,05,04,18.40
2008,08,16,05,05,18.50
2008,08,16,05,06,18.60
2008,08,16,05,07,18.60
2008,08,16,05,08,18.60
2008,08,16,05,09,18.60
2008,08,16,05,10,18.60
2008,08,16,05,11,18.60
2008,08,16,05,12,18.60
2008,08,16,05,13,18.60
2008,08,16,05,14,18.60
2008,08,16,05,15,18.60
2008,08,16,05,16,18.70
2008,08,16,05,17,18.70
2008,08,16,05,18,18.70
2008,08,16,05,19,18.70
2008,08,16,05,20,18.70
2008,08,16,05,21,18.70
2008,08,16,05,22,18.70
2008,08,16,05,23,18.70
2008,08,16,05,24,18.70
2008,08,16,05,25,18.70
2008,08,16,05,26,18.70
2008,08,16,05,27,18.70
2008,08,16,05,28,18.70
2008,08,16,05,29,18.70
2008,08,16,05,30,18.60
2008,08,16,05,31,18.60
2008,08,16,05,32,18.50
2008,08,16,05,33,18.50
2008,08,16,05,34,18.50
2008,08,16,05,35,18.40
2008,08,16,05,36,18.40
2008,08,16,05,37,18.40
2008,08,16,05,38,18.40
2008,08,16,05,39,18.40
2008,08,16,05,40,18.40
2008,08,16,05,41,18.30
2008,08,16,05,42,18.30
2008,08,16,05,43,18.30
2008,08,16,05,44,18.30
2008,08,16,05,45,18.30
2008,08,16,05,46,18.30
2008,08,16,05,47,18.30
2008,08,16,05,48,18.30
2008,08,16,05,49,18.20
2008,08,16,05,50,18.20
2008,08,16,05,51,18.20
2008,08,16,05,52,18.20
2008,08,16,05,53,18.20
2008,08,16,05,54,18.20
2008,08,16,05,55,18.20
2008,08,16,05,56,18.20
2008,08,16,05,57,18.20
2008,08,16,05,58,18.20
2008,08,16,05,59,18.20
2008,08,16,06,00,18.20
2008,08,16,06,01,18.10
2008,08,16,06,02,18.10
2008,08,16,06,03,18.00
2008,08,16,06,04,17.90
2008,08,16,06,05,17.90
2008,08,16,06,06,17.80
2008,08,16,06,07,17.70
2008,08,16,06,08,17.50
2008,08,16,06,09,17.30
2008,08,16,06,10,17.20
2008,08,16,06,11,17.00
2008,08,16,06,12,16.90
2008,08,16,06,13,16.80
2008,08,16,06,14,16.70
2008,08,16,06,15,16.60
2008,08,16,06,16,16.50
2008,08,16,06,17,16.40
2008,08,16,06,18,16.40
2008,08,16,06,19,16.30
2008,08,16,06,20,16.20
2008,08,16,06,21,16.20
2008,08,16,06,22,16.10
2008,08,16,06,23,16.20
2008,08,16,06,24,16.20
2008,08,16,06,25,16.30
2008,08,16,06,26,16.40
2008,08,16,06,27,16.40
2008,08,16,06,28,16.40
2008,08,16,06,29,16.30
2008,08,16,06,30,16.30
2008,08,16,06,31,16.30
2008,08,16,06,32,16.30
2008,08,16,06,33,16.30
2008,08,16,06,34,16.30
2008,08,16,06,35,16.30
2008,08,16,06,36,16.40
2008,08,16,06,37,16.50
2008,08,16,06,38,16.60
2008,08,16,06,39,16.70
2008,08,16,06,40,16.80
2008,08,16,06,41,16.90
2008,08,16,06,42,17.00
2008,08,16,06,43,17.10
2008,08,16,06,44,17.20
2008,08,16,06,45,17.30
2008,08,16,06,46,17.30
2008,08,16,06,47,17.40
2008,08,16,06,48,17.50
2008,08,16,06,49,17.60
2008,08,16,06,50,17.70
2008,08,16,06,51,17.80
2008,08,16,06,52,17.90
2008,08,16,06,53,17.90
2008,08,16,06,54,17.90
2008,08,16,06,55,17.90
2008,08,16,06,56,17.90
2008,08,16,06,57,17.90
2008,08,16,06,58,17.90
2008,08,16,06,59,17.80
2008,08,16,07,00,17.70
2008,08,16,07,01,17.70
2008,08,16,07,02,17.70
2008,08,16,07,03,17.70
2008,08,16,07,04,17.70
2008,08,16,07,05,17.70
2008,08,16,07,06,17.70
2008,08,16,07,07,17.70
2008,08,16,07,08,17.70
2008,08,16,07,09,17.70
2008,08,16,07,10,17.70
2008,08,16,07,11,17.70
2008,08,16,07,12,17.70
2008,08,16,07,13,17.80
2008,08,16,07,14,17.90
2008,08,16,07,15,18.00
2008,08,16,07,16,18.10
2008,08,16,07,17,18.20
2008,08,16,07,18,18.20
2008,08,16,07,19,18.20
2008,08,16,07,20,18.30
2008,08,16,07,21,18.40
2008,08,16,07,22,18.40
2008,08,16,07,23,18.50
2008,08,16,07,24,18.50
2008,08,16,07,25,18.70
2008,08,16,07,26,18.80
2008,08,16,07,27,18.90
2008,08,16,07,28,19.10
2008,08,16,07,29,19.20
2008,08,16,07,30,19.40
2008,08,16,07,31,19.50
2008,08,16,07,32,19.50
2008,08,16,07,33,19.60
2008,08,16,07,34,19.60
2008,08,16,07,35,19.60
2008,08,16,07,36,19.70
2008,08,16,07,37,19.80
2008,08,16,07,38,19.80
2008,08,16,07,39,19.90
2008,08,16,07,40,20.00
2008,08,16,07,41,20.10
2008,08,16,07,42,20.10
2008,08,16,07,43,20.20
2008,08,16,07,44,20.20
2008,08,16,07,45,20.20
2008,08,16,07,46,20.30
2008,08,16,07,47,20.40
2008,08,16,07,48,20.40
2008,08,16,07,49,20.50
2008,08,16,07,50,20.50
2008,08,16,07,51,20.60
2008,08,16,07,52,20.70
2008,08,16,07,53,20.80
2008,08,16,07,54,20.80
2008,08,16,07,55,20.90
2008,08,16,07,56,20.90
2008,08,16,07,57,20.90
2008,08,16,07,58,21.00
2008,08,16,07,59,21.00
2008,08,16,08,00,21.10
2008,08,16,08,01,21.10
2008,08,16,08,02,21.20
2008,08,16,08,03,21.20
2008,08,16,08,04,21.30
2008,08,16,08,05,21.30
2008,08,16,08,06,21.30
2008,08,16,08,07,21.30
2008,08,16,08,08,21.30
2008,08,16,08,09,21.30
2008,08,16,08,10,21.30
2008,08,16,08,11,21.40
2008,08,16,08,12,21.40
2008,08,16,08,13,21.40
2008,08,16,08,14,21.40
2008,08,16,08,15,21.60
2008,08,16,08,16,21.60
2008,08,16,08,17,21.60
2008,08,16,08,18,21.70
2008,08,16,08,19,21.80
2008,08,16,08,20,21.80
2008,08,16,08,21,21.80
2008,08,16,08,22,21.90
2008,08,16,08,23,21.90
2008,08,16,08,24,22.00
2008,08,16,08,25,22.00
2008,08,16,08,26,22.10
2008,08,16,08,27,22.20
2008,08,16,08,28,22.30
2008,08,16,08,29,22.30
2008,08,16,08,30,22.40
2008,08,16,08,31,22.50
2008,08,16,08,32,22.60
2008,08,16,08,33,22.70
2008,08,16,08,34,22.80
2008,08,16,08,35,22.90
2008,08,16,08,36,22.90
2008,08,16,08,37,22.90
2008,08,16,08,38,22.90
2008,08,16,08,39,22.90
2008,08,16,08,40,22.90
2008,08,16,08,41,22.90
2008,08,16,08,42,22.80
2008,08,16,08,43,22.70
2008,08,16,08,44,22.60
2008,08,16,08,45,22.50
2008,08,16,08,46,22.50
2008,08,16,08,47,22.40
2008,08,16,08,48,22.40
2008,08,16,08,49,22.40
2008,08,16,08,50,22.40
2008,08,16,08,51,22.40
2008,08,16,08,52,22.40
2008,08,16,08,53,22.40
2008,08,16,08,54,22.40
2008,08,16,08,55,22.50
2008,08,16,08,56,22.60
2008,08,16,08,57,22.60
2008,08,16,08,58,22.70
2008,08,16,08,59,22.70
2008,08,16,09,00,22.70
2008,08,16,09,01,22.70
2008,08,16,09,02,22.70
2008,08,16,09,03,22.80
2008,08,16,09,04,22.90
2008,08,16,09,05,22.90
2008,08,16,09,06,23.00
2008,08,16,09,07,23.10
2008,08,16,09,08,23.20
2008,08,16,09,09,23.20
2008,08,16,09,10,23.20
2008,08,16,09,11,23.20
2008,08,16,09,12,23.20
2008,08,16,09,13,23.20
2008,08,16,09,14,23.20
2008,08,16,09,15,23.20
2008,08,16,09,16,23.20
2008,08,16,09,17,23.30
2008,08,16,09,18,23.30
2008,08,16,09,19,23.30
2008,08,16,09,20,23.30
2008,08,16,09,21,23.30
2008,08,16,09,22,23.30
2008,08,16,09,23,23.30
2008,08,16,09,24,23.30
2008,08,16,09,25,23.30
2008,08,16,09,26,23.30
2008,08,16,09,27,23.20
2008,08,16,09,28,23.20
2008,08,16,09,29,23.20
2008,08,16,09,30,23.20
2008,08,16,09,31,23.20
2008,08,16,09,32,23.20
2008,08,16,09,33,23.30
2008,08,16,09,34,23.20
2008,08,16,09,35,23.20
2008,08,16,09,36,23.20
2008,08,16,09,37,23.30
2008,08,16,09,38,23.30
2008,08,16,09,39,23.30
2008,08,16,09,40,23.30
2008,08,16,09,41,23.30
2008,08,16,09,42,23.30
2008,08,16,09,43,23.30
2008,08,16,09,44,23.30
2008,08,16,09,45,23.30
2008,08,16,09,46,23.30
2008,08,16,09,47,23.40
2008,08,16,09,48,23.40
2008,08,16,09,49,23.50
2008,08,16,09,50,23.60
2008,08,16,09,51,23.60
2008,08,16,09,52,23.60
2008,08,16,09,53,23.60
2008,08,16,09,54,23.60
2008,08,16,09,55,23.60
2008,08,16,09,56,23.60
2008,08,16,09,57,23.60
2008,08,16,09,58,23.60
2008,08,16,09,59,23.60
2008,08,16,10,00,23.70
2008,08,16,10,01,23.70
2008,08,16,10,02,23.70
2008,08,16,10,03,23.70
2008,08,16,10,04,23.60
2008,08,16,10,05,23.60
2008,08,16,10,06,23.70
2008,08,16,10,07,23.70
2008,08,16,10,08,23.80
2008,08,16,10,09,23.80
2008,08,16,10,10,23.70
2008,08,16,10,11,23.80
2008,08,16,10,12,23.90
2008,08,16,10,13,23.90
2008,08,16,10,14,23.90
2008,08,16,10,15,24.00
2008,08,16,10,16,24.10
2008,08,16,10,17,24.10
2008,08,16,10,18,24.00
2008,08,16,10,19,23.90
2008,08,16,10,20,23.90
2008,08,16,10,21,24.10
2008,08,16,10,22,24.10
2008,08,16,10,23,24.10
2008,08,16,10,24,24.20
2008,08,16,10,25,24.30
2008,08,16,10,26,24.30
2008,08,16,10,27,24.30
2008,08,16,10,28,24.20
2008,08,16,10,29,24.30
2008,08,16,10,30,24.30
2008,08,16,10,31,24.30
2008,08,16,10,32,24.30
2008,08,16,10,33,24.30
2008,08,16,10,34,24.30
2008,08,16,10,35,24.30
2008,08,16,10,36,24.30
2008,08,16,10,37,24.30
2008,08,16,10,38,24.30
2008,08,16,10,39,24.30
2008,08,16,10,40,24.20
2008,08,16,10,41,24.20
2008,08,16,10,42,24.20
2008,08,16,10,43,24.30
2008,08,16,10,44,24.30
2008,08,16,10,45,24.40
2008,08,16,10,46,24.40
2008,08,16,10,47,24.40
2008,08,16,10,48,24.40
2008,08,16,10,49,24.40
2008,08,16,10,50,24.40
2008,08,16,10,51,24.50
2008,08,16,10,52,24.60
2008,08,16,10,53,24.60
2008,08,16,10,54,24.70
2008,08,16,10,55,24.70
2008,08,16,10,56,24.80
2008,08,16,10,57,24.80
2008,08,16,10,58,24.80
2008,08,16,10,59,24.70
2008,08,16,11,00,24.60
2008,08,16,11,01,24.60
2008,08,16,11,02,24.60
2008,08,16,11,03,24.70
2008,08,16,11,04,24.80
2008,08,16,11,05,24.90
2008,08,16,11,06,25.00
2008,08,16,11,07,25.00
2008,08,16,11,08,25.00
2008,08,16,11,09,24.90
2008,08,16,11,10,24.80
2008,08,16,11,11,24.70
2008,08,16,11,12,24.60
2008,08,16,11,13,24.60
2008,08,16,11,14,24.50
2008,08,16,11,15,24.50
2008,08,16,11,16,24.60
2008,08,16,11,17,24.70
2008,08,16,11,18,24.80
2008,08,16,11,19,24.90
2008,08,16,11,20,25.00
2008,08,16,11,21,25.10
2008,08,16,11,22,25.00
2008,08,16,11,23,25.00
2008,08,16,11,24,24.90
2008,08,16,11,25,24.80
2008,08,16,11,26,24.80
2008,08,16,11,27,24.70
2008,08,16,11,28,24.70
2008,08,16,11,29,24.80
2008,08,16,11,30,24.80
2008,08,16,11,31,24.80
2008,08,16,11,32,24.90
2008,08,16,11,33,24.90
2008,08,16,11,34,24.90
2008,08,16,11,35,24.90
2008,08,16,11,36,24.90
2008,08,16,11,37,25.00
2008,08,16,11,38,25.00
2008,08,16,11,39,25.00
2008,08,16,11,40,24.90
2008,08,16,11,41,24.80
2008,08,16,11,42,24.70
2008,08,16,11,43,24.80
2008,08,16,11,44,25.00
2008,08,16,11,45,25.30
2008,08,16,11,46,25.30
2008,08,16,11,47,25.30
2008,08,16,11,48,25.30
2008,08,16,11,49,25.20
2008,08,16,11,50,25.20
2008,08,16,11,51,25.20
2008,08,16,11,52,25.10
2008,08,16,11,53,25.10
2008,08,16,11,54,25.10
2008,08,16,11,55,25.10
2008,08,16,11,56,25.10
2008,08,16,11,57,25.10
2008,08,16,11,58,25.20
2008,08,16,11,59,25.20
2008,08,16,12,00,25.30
2008,08,16,12,01,25.40
2008,08,16,12,02,25.40
2008,08,16,12,03,25.50
2008,08,16,12,04,25.40
2008,08,16,12,05,25.30
2008,08,16,12,06,25.20
2008,08,16,12,07,25.30
2008,08,16,12,08,25.30
2008,08,16,12,09,25.40
2008,08,16,12,10,25.40
2008,08,16,12,11,25.50
2008,08,16,12,12,25.60
2008,08,16,12,13,25.60
2008,08,16,12,14,25.80
2008,08,16,12,15,25.90
2008,08,16,12,16,26.00
2008,08,16,12,17,26.20
2008,08,16,12,18,26.20
2008,08,16,12,19,26.20
2008,08,16,12,20,26.10
2008,08,16,12,21,26.10
2008,08,16,12,22,26.10
2008,08,16,12,23,26.10
2008,08,16,12,24,26.10
2008,08,16,12,25,26.20
2008,08,16,12,26,26.30
2008,08,16,12,27,26.40
2008,08,16,12,28,26.50
2008,08,16,12,29,26.60
2008,08,16,12,30,26.60
2008,08,16,12,31,26.70
2008,08,16,12,32,26.80
2008,08,16,12,33,26.80
2008,08,16,12,34,26.80
2008,08,16,12,35,26.80
2008,08,16,12,36,26.70
2008,08,16,12,37,26.70
2008,08,16,12,38,26.60
2008,08,16,12,39,26.60
2008,08,16,12,40,26.70
2008,08,16,12,41,26.70
2008,08,16,12,42,26.70
2008,08,16,12,43,26.70
2008,08,16,12,44,26.70
2008,08,16,12,45,26.80
2008,08,16,12,46,26.80
2008,08,16,12,47,26.80
2008,08,16,12,48,26.80
2008,08,16,12,49,26.80
2008,08,16,12,50,26.80
2008,08,16,12,51,26.80
2008,08,16,12,52,26.90
2008,08,16,12,53,26.90
2008,08,16,12,54,26.80
2008,08,16,12,55,26.80
2008,08,16,12,56,26.80
2008,08,16,12,57,26.70
2008,08,16,12,58,26.80
2008,08,16,12,59,26.70
2008,08,16,13,00,26.70
2008,08,16,13,01,26.60
2008,08,16,13,02,26.50
2008,08,16,13,03,26.40
2008,08,16,13,04,26.50
2008,08,16,13,05,26.60
2008,08,16,13,06,26.60
2008,08,16,13,07,26.60
2008,08,16,13,08,26.60
2008,08,16,13,09,26.60
2008,08,16,13,10,26.60
2008,08,16,13,11,26.70
2008,08,16,13,12,26.70
2008,08,16,13,13,26.80
2008,08,16,13,14,26.80
2008,08,16,13,15,26.90
2008,08,16,13,16,26.90
2008,08,16,13,17,26.90
2008,08,16,13,18,26.90
2008,08,16,13,19,26.90
2008,08,16,13,20,26.80
2008,08,16,13,21,26.60
2008,08,16,13,22,26.60
2008,08,16,13,23,26.60
2008,08,16,13,24,26.50
2008,08,16,13,25,26.30
2008,08,16,13,26,26.20
2008,08,16,13,27,26.00
2008,08,16,13,28,26.00
2008,08,16,13,29,26.00
2008,08,16,13,30,25.90
2008,08,16,13,31,25.90
2008,08,16,13,32,26.00
2008,08,16,13,33,26.00
2008,08,16,13,34,25.90
2008,08,16,13,35,25.80
2008,08,16,13,36,25.90
2008,08,16,13,37,25.90
2008,08,16,13,38,25.90
2008,08,16,13,39,26.00
2008,08,16,13,40,26.10
2008,08,16,13,41,26.30
2008,08,16,13,42,26.50
2008,08,16,13,43,26.60
2008,08,16,13,44,26.50
2008,08,16,13,45,26.40
2008,08,16,13,46,26.40
2008,08,16,13,47,26.40
2008,08,16,13,48,26.40
2008,08,16,13,49,26.40
2008,08,16,13,50,26.40
2008,08,16,13,51,26.40
2008,08,16,13,52,26.60
2008,08,16,13,53,26.60
2008,08,16,13,54,26.80
2008,08,16,13,55,26.90
2008,08,16,13,56,27.00
2008,08,16,13,57,27.00
2008,08,16,13,58,27.00
2008,08,16,13,59,27.10
2008,08,16,14,00,27.30
2008,08,16,14,01,27.30
2008,08,16,14,02,27.30
2008,08,16,14,03,27.30
2008,08,16,14,04,27.20
2008,08,16,14,05,27.20
2008,08,16,14,06,27.20
2008,08,16,14,07,27.10
2008,08,16,14,08,27.00
2008,08,16,14,09,26.90
2008,08,16,14,10,26.80
2008,08,16,14,11,26.90
2008,08,16,14,12,26.90
2008,08,16,14,13,26.90
2008,08,16,14,14,26.90
2008,08,16,14,15,26.90
2008,08,16,14,16,26.90
2008,08,16,14,17,26.90
2008,08,16,14,18,26.90
2008,08,16,14,19,26.90
2008,08,16,14,20,27.00
2008,08,16,14,21,27.10
2008,08,16,14,22,27.20
2008,08,16,14,23,27.20
2008,08,16,14,24,27.30
2008,08,16,14,25,27.30
2008,08,16,14,26,27.40
2008,08,16,14,27,27.40
2008,08,16,14,28,27.40
2008,08,16,14,29,27.40
2008,08,16,14,30,27.50
2008,08,16,14,31,27.60
2008,08,16,14,32,27.70
2008,08,16,14,33,27.80
2008,08,16,14,34,27.80
2008,08,16,14,35,27.70
2008,08,16,14,36,27.70
2008,08,16,14,37,27.80
2008,08,16,14,38,27.90
2008,08,16,14,39,27.90
2008,08,16,14,40,27.70
2008,08,16,14,41,27.70
2008,08,16,14,42,27.60
2008,08,16,14,43,27.60
2008,08,16,14,44,27.70
2008,08,16,14,45,27.70
2008,08,16,14,46,27.70
2008,08,16,14,47,27.70
2008,08,16,14,48,27.60
2008,08,16,14,49,27.60
2008,08,16,14,50,27.70
2008,08,16,14,51,27.80
2008,08,16,14,52,27.90
2008,08,16,14,53,28.00
2008,08,16,14,54,27.90
2008,08,16,14,55,28.00
2008,08,16,14,56,28.00
2008,08,16,14,57,28.00
2008,08,16,14,58,28.10
2008,08,16,14,59,28.20
2008,08,16,15,00,28.10
2008,08,16,15,01,28.10
2008,08,16,15,02,28.10
2008,08,16,15,03,28.10
2008,08,16,15,04,28.00
2008,08,16,15,05,28.00
2008,08,16,15,06,28.10
2008,08,16,15,07,28.20
2008,08,16,15,08,28.30
2008,08,16,15,09,28.50
2008,08,16,15,10,28.70
2008,08,16,15,11,28.80
2008,08,16,15,12,28.80
2008,08,16,15,13,28.90
2008,08,16,15,14,28.90
2008,08,16,15,15,28.80
2008,08,16,15,16,28.80
2008,08,16,15,17,28.80
2008,08,16,15,18,28.80
2008,08,16,15,19,28.80
2008,08,16,15,20,28.80
2008,08,16,15,21,28.60
2008,08,16,15,22,28.50
2008,08,16,15,23,28.40
2008,08,16,15,24,28.20
2008,08,16,15,25,28.20
2008,08,16,15,26,28.10
2008,08,16,15,27,28.20
2008,08,16,15,28,28.20
2008,08,16,15,29,28.20
2008,08,16,15,30,28.30
2008,08,16,15,31,28.40
2008,08,16,15,32,28.60
2008,08,16,15,33,28.60
2008,08,16,15,34,28.70
2008,08,16,15,35,28.70
2008,08,16,15,36,28.80
2008,08,16,15,37,28.80
2008,08,16,15,38,28.90
2008,08,16,15,39,28.90
2008,08,16,15,40,28.90
2008,08,16,15,41,28.90
2008,08,16,15,42,28.90
2008,08,16,15,43,28.90
2008,08,16,15,44,28.80
2008,08,16,15,45,28.80
2008,08,16,15,46,28.70
2008,08,16,15,47,28.70
2008,08,16,15,48,28.80
2008,08,16,15,49,28.80
2008,08,16,15,50,28.90
2008,08,16,15,51,28.90
2008,08,16,15,52,28.90
2008,08,16,15,53,28.90
2008,08,16,15,54,28.80
2008,08,16,15,55,28.70
2008,08,16,15,56,28.70
2008,08,16,15,57,28.80
2008,08,16,15,58,28.90
2008,08,16,15,59,28.90
2008,08,16,16,00,28.90
2008,08,16,16,01,29.00
2008,08,16,16,02,29.10
2008,08,16,16,03,29.10
2008,08,16,16,04,29.10
2008,08,16,16,05,29.10
2008,08,16,16,06,29.20
2008,08,16,16,07,29.20
2008,08,16,16,08,29.30
2008,08,16,16,09,29.50
2008,08,16,16,10,29.50
2008,08,16,16,11,29.60
2008,08,16,16,12,29.60
2008,08,16,16,13,29.70
2008,08,16,16,14,29.70
2008,08,16,16,15,29.80
2008,08,16,16,16,29.70
2008,08,16,16,17,29.60
2008,08,16,16,18,29.40
2008,08,16,16,19,29.30
2008,08,16,16,20,29.20
2008,08,16,16,21,29.10
2008,08,16,16,22,29.10
2008,08,16,16,23,29.00
2008,08,16,16,24,28.90
2008,08,16,16,25,29.00
2008,08,16,16,26,29.10
2008,08,16,16,27,29.20
2008,08,16,16,28,29.20
2008,08,16,16,29,29.30
2008,08,16,16,30,29.30
2008,08,16,16,31,29.40
2008,08,16,16,32,29.40
2008,08,16,16,33,29.40
2008,08,16,16,34,29.40
2008,08,16,16,35,29.50
2008,08,16,16,36,29.60
2008,08,16,16,37,29.80
2008,08,16,16,38,29.90
2008,08,16,16,39,29.90
2008,08,16,16,40,29.90
2008,08,16,16,41,30.00
2008,08,16,16,42,30.10
2008,08,16,16,43,29.90
2008,08,16,16,44,29.70
2008,08,16,16,45,29.60
2008,08,16,16,46,29.40
2008,08,16,16,47,29.30
2008,08,16,16,48,29.40
2008,08,16,16,49,29.50
2008,08,16,16,50,29.70
2008,08,16,16,51,29.80
2008,08,16,16,52,29.90
2008,08,16,16,53,30.10
2008,08,16,16,54,30.30
2008,08,16,16,55,30.40
2008,08,16,16,56,30.60
2008,08,16,16,57,30.60
2008,08,16,16,58,30.40
2008,08,16,16,59,30.10
2008,08,16,17,00,29.90
2008,08,16,17,01,29.90
2008,08,16,17,02,29.90
2008,08,16,17,03,29.80
2008,08,16,17,04,29.60
2008,08,16,17,05,29.60
2008,08,16,17,06,29.70
2008,08,16,17,07,29.90
2008,08,16,17,08,30.10
2008,08,16,17,09,30.30
2008,08,16,17,10,30.50
2008,08,16,17,11,30.60
2008,08,16,17,12,30.60
2008,08,16,17,13,30.60
2008,08,16,17,14,30.40
2008,08,16,17,15,30.40
2008,08,16,17,16,30.40
2008,08,16,17,17,30.40
2008,08,16,17,18,30.20
2008,08,16,17,19,30.20